星链-4750 (STARLINK-4750 )

导读

STARLINK-4750是美国太空探索技术公司(SpaceX)星链(Starlink)卫星互联网项目的成员,于2022年9月19日发射升空。星链计划旨在构建全球卫星互联网星座,提供全球覆盖的高速互联网服务。该卫星入轨后,进一步扩充了星链星座的规模,助力提升全球网络接入能力,尤其服务偏远地区与网络基础设施匮乏区域。

Basic Information
目录编号:
53841
目录名称:
STARLINK-4750
国际标识:
2022-114Z
轨道中心:
EARTH
卫星名称:
星链-4750
卫星全名:
星链-4750 (STARLINK-4750 )
卫星状态:
在轨 (已飞行1365 天)
发射日期:
2022-09-19 UTC
国别 :
美国 (US)
星等 :
--
Orbit Information
数据来源 国际轨道数据 AOE轨道数据
星历时间 2026-06-14T18:12:57+0800
19小时前
查看轨道信息
2026-06-15T08:00:00+0800
5小时前
查看轨道信息
半长轴 6917.899km 6917.862km
偏心率 0.000127 0.0001504
轨道倾角 53.160° 53.158°
近地点辐角 87.303° 68.723°
升交点赤经 219.904° 217.324°
平近点角 272.811° 172.790°
近地点 538.883km 538.684km
远地点 540.641km 540.766km
周期 95.438分钟 95.437分钟
每日圈数 15.088342 15.088462
Detailed Information
固有亮度:
5
最大亮度:
2.5
卫星平台:
Starlink v1.5
覆盖范围:
全球
运营商:
太空探索技术公司
运营商所在国:
美国
制造商(研发单位):
太空探索技术公司
制造商所在国:
美国
使用方式:
暂无
Satellite Introduction
星链(Starlink)计划是由太空探索技术公司(SpaceX)提出的一个巨型低轨卫星互联网星座项目,计划在2019年至2024年间在太空搭建由约1.2万颗卫星组成的“星链”网络,其中1584颗将部署在地球上空550千米处的近地轨道,并从2020年开始工作。该卫星仍在工作。
2D Orbit Map
3D Orbit Map
Orbit Altitude Analysis Chart
Orbit Inclination Analysis Chart
Orbit Comprehensive Analysis Chart
View Comprehensive Chart